This demonstration page uses our WeatherBlox Daily Observations layout. Learn more.

Left ArrowRight Arrow

44.8408, -93.29828

Hourly Observations for February 12, 2022

Temp ( °F °C ) Dew Point ( °F °C ) Humidity (%) Winds ( mph kmh ) Pressure ( in mb ) Visibility ( mi km ) Precip ( " mm )
12:53 am 00:53 Mostly Cloudy 2 -16.7 -7 -21.7 65 65 NW 13 20 30.43 1031 10 16 0.00 0.00
1:53 am 01:53 Mostly Clear 1 -17.2 -9 -22.8 62 62 NNW 15 24 30.45 1031 10 16 0.00 0.00
2:53 am 02:53 Clear -1 -18.3 -10 -23.3 65 65 NNW 9 15 30.46 1032 10 16 0.00 0.00
3:53 am 03:53 Clear -2 -18.9 -10 -23.3 68 68 NNW 12 19 30.48 1032 10 16 0.00 0.00
4:53 am 04:53 Clear -3 -19.4 -11 -23.9 68 68 NNW 8 13 30.49 1033 10 16 0.00 0.00
5:53 am 05:53 Clear -5 -20.6 -13 -25 68 68 NW 9 15 30.50 1033 10 16 0.00 0.00
6:53 am 06:53 Clear -6 -21.1 -14 -25.6 67 67 NW 8 13 30.52 1033 10 16 0.00 0.00
7:53 am 07:53 Mostly Sunny -7 -21.7 -14 -25.6 71 71 NW 8 13 30.52 1034 10 16 0.00 0.00
8:53 am 08:53 Partly Cloudy -5 -20.6 -13 -25 68 68 NW 6 9 30.52 1034 10 16 0.00 0.00
9:53 am 09:53 Partly Cloudy -3 -19.4 -12 -24.4 65 65 NNW 5 7 30.51 1033 10 16 0.00 0.00
10:53 am 10:53 Mostly Cloudy -1 -18.3 -11 -23.9 62 62 WSW 3 6 30.51 1033 10 16 0.00 0.00
11:53 am 11:53 Mostly Cloudy 1 -17.2 -10 -23.3 59 59 W 3 6 30.49 1033 10 16 0.00 0.00
12:53 pm 12:53 Cloudy 2 -16.7 -10 -23.3 57 57 Calm 30.46 1031 10 16 0.00 0.00
1:53 pm 13:53 Mostly Cloudy 3 -16.1 -9 -22.8 57 57 SW 7 11 30.42 1030 10 16 0.00 0.00
2:53 pm 14:53 Cloudy 4 -15.6 -9 -22.8 54 54 W 8 13 30.40 1030 10 16 0.00 0.00
3:53 pm 15:53 Cloudy 4 -15.6 -10 -23.3 52 52 WSW 8 13 30.41 1030 10 16 0.00 0.00
4:53 pm 16:53 Mostly Cloudy 4 -15.6 -10 -23.3 52 52 W 5 7 30.40 1030 10 16 0.00 0.00
5:53 pm 17:53 Mostly Cloudy 4 -15.6 -9 -22.8 54 54 WSW 5 7 30.39 1029 10 16 0.00 0.00
6:53 pm 18:53 Cloudy 4 -15.6 -9 -22.8 54 54 W 3 6 30.38 1029 10 16 0.00 0.00
7:53 pm 19:53 Cloudy 4 -15.6 -8 -22.2 57 57 Calm 30.39 1029 10 16 0.00 0.00
8:25 pm 20:25 Cloudy with Light Snow 3 -16 -8 -22 60 60 NW 5 7 30.43 1030 6 10 0.00 0.00
8:53 pm 20:53 Cloudy with Light Snow 4 -15.6 -5 -20.6 66 66 NW 6 9 30.40 1029 5 8 0.00 0.00
9:14 pm 21:14 Cloudy with Light Snow 4 -15.6 -4 -20 69 69 VRB 3 6 30.44 1031 3 4 0.01 0.25
9:30 pm 21:30 Cloudy with Light Snow 4 -15.6 -4 -20 69 69 Calm 30.44 1031 3 5 0.01 0.25
9:51 pm 21:51 Cloudy with Light Snow 3 -16 -2 -19 78 78 Calm 30.43 1030 3 4 0.01 0.25
9:53 pm 21:53 Cloudy with Light Snow 4 -15.6 -3 -19.4 73 73 Calm 30.39 1029 3 4 0.01 0.25
10:05 pm 22:05 Cloudy with Light Snow 4 -15.6 -3 -19.4 73 73 Calm 30.43 1030 3 5 0.00 0.00
10:31 pm 22:31 Cloudy with Light Snow 4 -15.6 -3 -19.4 73 73 Calm 30.43 1030 3 4 0.00 0.00
10:37 pm 22:37 Cloudy with Light Snow 4 -15.6 -3 -19.4 73 73 Calm 30.43 1030 3 5 0.00 0.00
10:46 pm 22:46 Cloudy with Light Snow 4 -15.6 -3 -19.4 73 73 N 3 6 30.43 1030 3 5 0.00 0.00
10:53 pm 22:53 Cloudy with Light Snow 4 -15.6 -3 -19.4 73 73 N 3 6 30.39 1029 3 5 0.00 0.00
11:29 pm 23:29 Cloudy with Light Snow 3 -16.1 -2 -18.9 79 79 N 5 7 30.45 1031 3 5 0.00 0.00
11:48 pm 23:48 Cloudy with Light Snow 3 -16 -2 -19 78 78 NW 5 7 30.44 1031 4 6 0.01 0.25
11:53 pm 23:53 Cloudy with Light Snow 4 -15.6 -2 -18.9 76 76 NNW 7 11 30.40 1030 5 8 0.01 0.25

Powered by AerisWeather